Tracking 29487 objects as of 11-Sep-2024
HD Live streaming from Space Station
objects crossing your sky now

SL-8 R/B

Track SL-8 R/B now!
10-day predictions


NORAD ID: 8646
Int'l Code: 1976-011B
Perigee: 987.6 km
Apogee: 997.3 km
Inclination: 83.0 °
Period: 104.8 minutes
Semi major axis: 7363 km
RCS: 4.2529 m2 (large)
Launch date: February 3, 1976
Source: Commonwealth of Independent States (former USSR) (CIS)
Launch site: PLESETSK MISSILE AND SPACE COMPLEX (PKMTR)

Note: This is a ROCKET BODY
Your satellite tracking list
Your tracking list is empty




NASA's NSSDC Master Catalog

Two Line Element Set (TLE):
1  8646U 76011B   24255.58606515  .00000218  00000-0  21625-3 0  9993
2  8646  82.9733 185.1734 0006633 122.5244  50.3678 13.73979896436559
Source of the keplerian elements: AFSPC